This demonstration page uses our WeatherBlox Daily Observations layout. Learn more.

Hourly Observations for November 20, 2016

Temp ( °F °C ) Dew Point ( °F °C ) Humidity (%) Winds ( mph kmh ) Pressure ( in mb ) Visibility ( mi km ) Precip ( " mm )
12:54 am 00:54 Clear 25 -3.9 20 -6.7 81 81 Calm 30.41 1030 10 16.0934 0 0
1:54 am 01:54 Clear 21 -6.1 17 -8.3 85 85 NNW 3 6 30.4 1029 10 16.0934 0 0
2:54 am 02:54 Clear 24 -4.4 19 -7.2 81 81 Calm 30.39 1029 10 16.0934 0 0
3:54 am 03:54 Clear 25 -3.9 20 -6.7 81 81 Calm 30.36 1028 10 16.0934 0 0
4:54 am 04:54 Clear 23 -5 18 -7.8 81 81 Calm 30.37 1028 10 16.0934 0 0
5:54 am 05:54 Clear 26 -3.3 19 -7.2 75 75 ESE 7 11 30.35 1028 10 16.0934 0 0
6:54 am 06:54 Clear 29 -1.7 22 -5.6 75 75 SE 10 17 30.33 1027 10 16.0934 0 0
7:54 am 07:54 Sunny 30 -1.1 22 -5.6 72 72 SE 8 13 30.33 1027 10 16.0934 0 0
8:54 am 08:54 Sunny 32 0 23 -5 69 69 SE 10 17 30.32 1027 10 16.0934 0 0
9:54 am 09:54 Sunny 39 3.9 24 -4.4 55 55 SE 10 17 30.3 1026 10 16.0934 0 0
10:54 am 10:54 Sunny 42 5.6 24 -4.4 49 49 SSE 16 26 30.28 1026 10 16.0934 0 0
11:54 am 11:54 Sunny 47 8.3 25 -3.9 42 42 SE 12 19 30.24 1024 10 16.0934 0 0
12:54 pm 12:54 Sunny 50 10 25 -3.9 38 38 SSE 15 24 30.19 1022 10 16.0934 0 0
1:54 pm 13:54 Sunny 52 11.1 24 -4.4 34 34 S 15 24 30.15 1021 10 16.0934 0 0
2:54 pm 14:54 Sunny 53 11.7 24 -4.4 32 32 S 16 26 30.12 1020 10 16.0934 0 0
3:54 pm 15:54 Sunny 51 10.6 26 -3.3 38 38 S 12 19 30.15 1021 10 16.0934 0 0
4:54 pm 16:54 Sunny 48 8.9 26 -3.3 42 42 SSE 6 9 30.15 1021 10 16.0934 0 0
5:54 pm 17:54 Clear 43 6.1 26 -3.3 51 51 SE 7 11 30.16 1021 10 16.0934 0 0
6:54 pm 18:54 Clear 41 5 26 -3.3 55 55 SSE 5 7 30.16 1022 10 16.0934 0 0
7:54 pm 19:54 Clear 40 4.4 26 -3.3 58 58 SE 7 11 30.16 1021 10 16.0934 0 0
8:54 pm 20:54 Clear 39 3.9 25 -3.9 57 57 SE 5 7 30.16 1021 10 16.0934 0 0
9:54 pm 21:54 Clear 37 2.8 24 -4.4 59 59 SSE 6 9 30.15 1021 10 16.0934 0 0
10:54 pm 22:54 Clear 36 2.2 24 -4.4 62 62 S 3 6 30.14 1021 10 16.0934 0 0
11:54 pm 23:54 Clear 27 -2.8 21 -6.1 78 78 Calm 30.15 1021 10 16.0934 0 0

Powered by AerisWeather